Time,TemperatureF,DewpointF,PressureIn,WindDirection,WindDirectionDegrees,WindSpeedMPH,WindSpeedGustMPH,Humidity,HourlyPrecipIn,Conditions,Clouds,dailyrainin,SolarRadiationWatts/m^2,SoftwareType,DateUTC
2013-10-08 00:02:00,34.0,34.0,-100.00,WNW,299,0.0,1.0,100,0.00,,,0.00,0.000000,,2013-10-08 08:02:00,
2013-10-08 00:12:00,34.0,34.0,-100.00,WNW,299,0.0,1.0,100,0.00,,,0.00,0.000000,,2013-10-08 08:12:00,
2013-10-08 00:21:00,34.0,34.0,-100.00,WNW,299,0.0,1.0,100,0.00,,,0.00,0.000000,,2013-10-08 08:21:00,
2013-10-08 00:52:00,32.0,32.0,-100.00,NW,321,0.0,1.0,100,0.00,,,0.00,0.000000,,2013-10-08 08:52:00,
2013-10-08 01:02:00,32.0,32.0,-100.00,NW,321,0.0,1.0,100,0.00,,,0.00,0.000000,,2013-10-08 09:02:00,
2013-10-08 01:12:00,32.0,32.0,-100.00,NW,321,0.0,1.0,100,0.00,,,0.00,0.000000,,2013-10-08 09:12:00,
2013-10-08 01:21:00,32.0,32.0,-100.00,NW,321,0.0,1.0,100,0.00,,,0.00,0.000000,,2013-10-08 09:21:00,
2013-10-08 01:53:00,32.0,32.0,-100.00,SSE,161,0.0,2.0,100,0.00,,,0.00,0.000000,,2013-10-08 09:53:00,
2013-10-08 02:03:00,32.0,32.0,-100.00,SSE,161,0.0,2.0,100,0.00,,,0.00,0.000000,,2013-10-08 10:03:00,
2013-10-08 02:12:00,32.0,32.0,-100.00,SSE,161,0.0,2.0,100,0.00,,,0.00,0.000000,,2013-10-08 10:12:00,
2013-10-08 02:23:00,32.0,32.0,-100.00,SSE,161,0.0,2.0,100,0.00,,,0.00,0.000000,,2013-10-08 10:23:00,
2013-10-08 02:53:00,32.0,32.0,-100.00,East,95,0.0,1.0,100,0.00,,,0.00,0.000000,,2013-10-08 10:53:00,
2013-10-08 03:02:00,32.0,32.0,-100.00,East,95,0.0,1.0,100,0.00,,,0.00,0.000000,,2013-10-08 11:02:00,
2013-10-08 03:12:00,32.0,32.0,-100.00,East,95,0.0,1.0,100,0.00,,,0.00,0.000000,,2013-10-08 11:12:00,
2013-10-08 03:21:00,32.0,32.0,-100.00,East,95,0.0,1.0,100,0.00,,,0.00,0.000000,,2013-10-08 11:21:00,
2013-10-08 03:52:00,32.0,32.0,-100.00,ENE,64,0.0,1.0,100,0.00,,,0.00,0.000000,,2013-10-08 11:52:00,
2013-10-08 04:02:00,32.0,32.0,-100.00,ENE,64,0.0,1.0,100,0.00,,,0.00,0.000000,,2013-10-08 12:02:00,
2013-10-08 04:12:00,32.0,32.0,-100.00,ENE,64,0.0,1.0,100,0.00,,,0.00,0.000000,,2013-10-08 12:12:00,
2013-10-08 04:21:00,32.0,32.0,-100.00,ENE,64,0.0,1.0,100,0.00,,,0.00,0.000000,,2013-10-08 12:21:00,
2013-10-08 04:52:00,32.0,32.0,-100.00,NE,55,0.0,1.0,100,0.00,,,0.00,0.000000,,2013-10-08 12:52:00,
2013-10-08 05:01:00,32.0,32.0,-100.00,NE,55,0.0,1.0,100,0.00,,,0.00,0.000000,,2013-10-08 13:01:00,
2013-10-08 05:11:00,32.0,32.0,-100.00,NE,55,0.0,1.0,100,0.00,,,0.00,0.000000,,2013-10-08 13:11:00,
2013-10-08 05:22:00,32.0,32.0,-100.00,NE,55,0.0,1.0,100,0.00,,,0.00,0.000000,,2013-10-08 13:22:00,
2013-10-08 05:52:00,32.0,32.0,-100.00,ESE,122,0.0,2.0,100,0.00,,,0.00,0.000000,,2013-10-08 13:52:00,
2013-10-08 06:02:00,32.0,32.0,-100.00,ESE,122,0.0,2.0,100,0.00,,,0.00,0.000000,,2013-10-08 14:02:00,
2013-10-08 06:11:00,32.0,32.0,-100.00,ESE,122,0.0,2.0,100,0.00,,,0.00,0.000000,,2013-10-08 14:11:00,
2013-10-08 06:21:00,32.0,32.0,-100.00,ESE,122,0.0,2.0,100,0.00,,,0.00,0.000000,,2013-10-08 14:21:00,
2013-10-08 06:52:00,32.0,32.0,-100.00,ENE,76,0.0,1.0,100,0.00,,,-99.99,0.000000,,2013-10-08 14:52:00,
2013-10-08 07:01:00,32.0,32.0,-100.00,ENE,76,0.0,1.0,100,0.00,,,-99.99,0.000000,,2013-10-08 15:01:00,
2013-10-08 07:11:00,32.0,32.0,-100.00,ENE,76,0.0,1.0,100,0.00,,,-99.99,0.000000,,2013-10-08 15:11:00,
2013-10-08 07:22:00,32.0,32.0,-100.00,ENE,76,0.0,1.0,100,0.00,,,-99.99,0.000000,,2013-10-08 15:22:00,
2013-10-08 07:53:00,32.0,32.0,-100.00,ENE,78,0.0,1.0,100,0.00,,,0.00,0.000000,,2013-10-08 15:53:00,
2013-10-08 08:03:00,32.0,32.0,-100.00,ENE,78,0.0,1.0,100,0.00,,,0.00,0.000000,,2013-10-08 16:03:00,
2013-10-08 08:13:00,32.0,32.0,-100.00,ENE,78,0.0,1.0,100,0.00,,,0.00,0.000000,,2013-10-08 16:13:00,
2013-10-08 08:23:00,32.0,32.0,-100.00,ENE,78,0.0,1.0,100,0.00,,,0.00,0.000000,,2013-10-08 16:23:00,
2013-10-08 08:53:00,32.0,32.0,-100.00,SE,133,0.0,3.0,100,0.00,,,0.00,2.000000,,2013-10-08 16:53:00,
2013-10-08 09:02:00,32.0,32.0,-100.00,SE,133,0.0,3.0,100,0.00,,,0.00,2.000000,,2013-10-08 17:02:00,
2013-10-08 09:12:00,32.0,32.0,-100.00,SE,133,0.0,3.0,100,0.00,,,0.00,2.000000,,2013-10-08 17:12:00,
2013-10-08 09:22:00,32.0,32.0,-100.00,SE,133,0.0,3.0,100,0.00,,,0.00,2.000000,,2013-10-08 17:22:00,
2013-10-08 09:52:00,32.0,32.0,-100.00,SE,128,0.0,1.0,100,0.00,,,0.00,12.000000,,2013-10-08 17:52:00,
2013-10-08 10:02:00,32.0,32.0,-100.00,SE,128,0.0,1.0,100,0.00,,,0.00,12.000000,,2013-10-08 18:02:00,
2013-10-08 10:11:00,32.0,32.0,-100.00,SE,128,0.0,1.0,100,0.00,,,0.00,12.000000,,2013-10-08 18:11:00,
2013-10-08 10:22:00,32.0,32.0,-100.00,SE,128,0.0,1.0,100,0.00,,,0.00,12.000000,,2013-10-08 18:22:00,
2013-10-08 10:53:00,34.0,34.0,-100.00,WNW,299,0.0,2.0,100,0.01,,,0.01,22.000000,,2013-10-08 18:53:00,
2013-10-08 11:02:00,34.0,34.0,-100.00,WNW,299,0.0,2.0,100,0.01,,,0.01,22.000000,,2013-10-08 19:02:00,
2013-10-08 11:11:00,34.0,34.0,-100.00,WNW,299,0.0,2.0,100,0.01,,,0.01,22.000000,,2013-10-08 19:11:00,
2013-10-08 11:21:00,34.0,34.0,-100.00,WNW,299,0.0,2.0,100,0.01,,,0.01,22.000000,,2013-10-08 19:21:00,
2013-10-08 11:52:00,36.0,36.0,-100.00,SSE,158,0.0,2.0,100,-99.99,,,0.00,34.000000,,2013-10-08 19:52:00,
2013-10-08 12:02:00,36.0,36.0,-100.00,SSE,158,0.0,2.0,100,-99.99,,,0.00,34.000000,,2013-10-08 20:02:00,
2013-10-08 12:12:00,36.0,36.0,-100.00,SSE,158,0.0,2.0,100,-99.99,,,0.00,34.000000,,2013-10-08 20:12:00,
2013-10-08 12:22:00,36.0,36.0,-100.00,SSE,158,0.0,2.0,100,-99.99,,,0.00,34.000000,,2013-10-08 20:22:00,
2013-10-08 12:52:00,37.0,37.0,-100.00,SE,143,0.0,1.0,100,0.00,,,0.00,31.000000,,2013-10-08 20:52:00,
2013-10-08 13:01:00,37.0,37.0,-100.00,SE,143,0.0,1.0,100,0.00,,,0.00,31.000000,,2013-10-08 21:01:00,
2013-10-08 13:12:00,37.0,37.0,-100.00,SE,143,0.0,1.0,100,0.00,,,0.00,31.000000,,2013-10-08 21:12:00,
2013-10-08 13:21:00,37.0,37.0,-100.00,SE,143,0.0,1.0,100,0.00,,,0.00,31.000000,,2013-10-08 21:21:00,
2013-10-08 13:24:00,39.0,39.0,-100.00,SSE,148,1.0,3.0,100,0.00,,,0.00,50.000000,,2013-10-08 21:24:00,
2013-10-08 13:54:00,39.0,39.0,-100.00,SSE,148,1.0,3.0,100,0.00,,,0.00,50.000000,,2013-10-08 21:54:00,
2013-10-08 14:03:00,39.0,39.0,-100.00,SSE,148,1.0,3.0,100,0.00,,,0.00,50.000000,,2013-10-08 22:03:00,
2013-10-08 14:13:00,39.0,39.0,-100.00,SSE,148,1.0,3.0,100,0.00,,,0.00,50.000000,,2013-10-08 22:13:00,
2013-10-08 14:57:00,43.0,43.0,-100.00,SE,135,1.0,3.0,100,0.00,,,0.00,108.000000,,2013-10-08 22:57:00,
2013-10-08 15:03:00,43.0,43.0,-100.00,SE,135,1.0,3.0,100,0.00,,,0.00,108.000000,,2013-10-08 23:03:00,
2013-10-08 15:12:00,43.0,43.0,-100.00,SE,135,1.0,3.0,100,0.00,,,0.00,108.000000,,2013-10-08 23:12:00,
2013-10-08 15:22:00,43.0,43.0,-100.00,SE,135,1.0,3.0,100,0.00,,,0.00,108.000000,,2013-10-08 23:22:00,
2013-10-08 15:52:00,45.0,44.0,-100.00,SSE,149,1.0,2.0,99,0.00,,,0.00,76.000000,,2013-10-08 23:52:00,
2013-10-08 16:02:00,45.0,44.0,-100.00,SSE,149,1.0,2.0,99,0.00,,,0.00,76.000000,,2013-10-09 00:02:00,
2013-10-08 16:12:00,45.0,44.0,-100.00,SSE,149,1.0,2.0,99,0.00,,,0.00,76.000000,,2013-10-09 00:12:00,
2013-10-08 16:22:00,45.0,44.0,-100.00,SSE,149,1.0,2.0,99,0.00,,,0.00,76.000000,,2013-10-09 00:22:00,
2013-10-08 16:52:00,46.0,40.0,-100.00,NW,320,1.0,4.0,78,0.00,,,0.00,43.000000,,2013-10-09 00:52:00,
2013-10-08 17:01:00,46.0,40.0,-100.00,NW,320,1.0,4.0,78,0.00,,,0.00,43.000000,,2013-10-09 01:01:00,
2013-10-08 17:12:00,46.0,40.0,-100.00,NW,320,1.0,4.0,78,0.00,,,0.00,43.000000,,2013-10-09 01:12:00,
2013-10-08 17:21:00,46.0,40.0,-100.00,NW,320,1.0,4.0,78,0.00,,,0.00,43.000000,,2013-10-09 01:21:00,
2013-10-08 17:52:00,48.0,40.0,-100.00,NW,307,2.0,8.0,74,0.00,,,0.00,40.000000,,2013-10-09 01:52:00,
2013-10-08 18:02:00,48.0,40.0,-100.00,NW,307,2.0,8.0,74,0.00,,,0.00,40.000000,,2013-10-09 02:02:00,
2013-10-08 18:12:00,48.0,40.0,-100.00,NW,307,2.0,8.0,74,0.00,,,0.00,40.000000,,2013-10-09 02:12:00,
2013-10-08 18:22:00,48.0,40.0,-100.00,NW,307,2.0,8.0,74,0.00,,,0.00,40.000000,,2013-10-09 02:22:00,
2013-10-08 18:52:00,48.0,39.0,-100.00,WNW,303,3.0,6.0,71,0.00,,,0.00,10.000000,,2013-10-09 02:52:00,
2013-10-08 19:02:00,48.0,39.0,-100.00,WNW,303,3.0,6.0,71,0.00,,,0.00,10.000000,,2013-10-09 03:02:00,
2013-10-08 19:11:00,48.0,39.0,-100.00,WNW,303,3.0,6.0,71,0.00,,,0.00,10.000000,,2013-10-09 03:11:00,
2013-10-08 19:23:00,48.0,39.0,-100.00,WNW,303,3.0,6.0,71,0.00,,,0.00,10.000000,,2013-10-09 03:23:00,
2013-10-08 19:54:00,48.0,39.0,-100.00,NW,311,4.0,8.0,70,0.00,,,0.00,0.000000,,2013-10-09 03:54:00,
2013-10-08 20:05:00,48.0,39.0,-100.00,NW,311,4.0,8.0,70,0.00,,,0.00,0.000000,,2013-10-09 04:05:00,
2013-10-08 20:14:00,48.0,39.0,-100.00,NW,311,4.0,8.0,70,0.00,,,0.00,0.000000,,2013-10-09 04:14:00,
2013-10-08 20:23:00,48.0,39.0,-100.00,NW,311,4.0,8.0,70,0.00,,,0.00,0.000000,,2013-10-09 04:23:00,
2013-10-08 20:54:00,48.0,39.0,-100.00,NW,311,3.0,7.0,69,0.00,,,0.00,0.000000,,2013-10-09 04:54:00,
2013-10-08 21:04:00,48.0,39.0,-100.00,NW,311,3.0,7.0,69,0.00,,,0.00,0.000000,,2013-10-09 05:04:00,
2013-10-08 21:13:00,48.0,39.0,-100.00,NW,311,3.0,7.0,69,0.00,,,0.00,0.000000,,2013-10-09 05:13:00,
2013-10-08 21:22:00,48.0,39.0,-100.00,NW,311,3.0,7.0,69,0.00,,,0.00,0.000000,,2013-10-09 05:22:00,
2013-10-08 21:52:00,48.0,40.0,-100.00,NW,310,4.0,8.0,73,0.00,,,0.00,0.000000,,2013-10-09 05:52:00,
2013-10-08 22:02:00,48.0,40.0,-100.00,NW,310,4.0,8.0,73,0.00,,,0.00,0.000000,,2013-10-09 06:02:00,
2013-10-08 22:12:00,48.0,40.0,-100.00,NW,310,4.0,8.0,73,0.00,,,0.00,0.000000,,2013-10-09 06:12:00,
2013-10-08 22:22:00,48.0,40.0,-100.00,NW,310,4.0,8.0,73,0.00,,,0.00,0.000000,,2013-10-09 06:22:00,
2013-10-08 22:52:00,48.0,40.0,-100.00,WNW,301,4.0,6.0,74,0.00,,,0.00,0.000000,,2013-10-09 06:52:00,
2013-10-08 23:01:00,48.0,40.0,-100.00,WNW,301,4.0,6.0,74,0.00,,,0.00,0.000000,,2013-10-09 07:01:00,
2013-10-08 23:12:00,48.0,40.0,-100.00,WNW,301,4.0,6.0,74,0.00,,,0.00,0.000000,,2013-10-09 07:12:00,
2013-10-08 23:21:00,48.0,40.0,-100.00,WNW,301,4.0,6.0,74,0.00,,,0.00,0.000000,,2013-10-09 07:21:00,
2013-10-08 23:52:00,48.0,40.0,-100.00,NW,314,4.0,8.0,73,0.00,,,0.00,0.000000,,2013-10-09 07:52:00,